Terminal Aerodrome Forecast
Issued by NWS Knoxville/Tri Cities, TN

Home | Current Version | Previous Version | Text Only | Print | Product List | Glossary On
Versions: 1 2 3 4 5 6 7 8 9 10 11 12 13 14
000
FTUS44 KMRX 280532
TAFTYS
TAF
KTYS 280532Z 2806/2906 VRB03KT 3SM BR FEW070 BKN250
     FM280900 VRB02KT 3/4SM BR BKN002
     FM281200 VRB02KT 4SM BR SCT002
     FM281300 23006KT P6SM SCT050 BKN250
     FM290100 VRB02KT P6SM SCT070 BKN200=

USA.gov is the U.S. government's official web portal to all federal, state and local government web resources and services.